星链-37423(STARLINK-37423)

导读

STARLINK-37423(NORAD编号68852)是美国SpaceX公司星链(Starlink)星座中的一颗低轨互联网通信卫星。星链计划旨在构建覆盖全球的天基互联网系统,该卫星属于SpaceX批量部署的星链卫星之一,运行于近地轨道,主要为全球用户提供高速低延迟的互联网接入服务,支持偏远地区网络覆盖、应急通信等场景,是星链星座规模化组网的组成部分,延续了Starlink卫星标准化设计与批量发射部署的策略,助力SpaceX实现全球卫星互联网覆盖的目标。

Basic Information
目录编号:
68852
目录名称:
STARLINK-37423
国际标识:
2026-094P
轨道中心:
EARTH
卫星名称:
星链-37423
卫星全名:
星链-37423(STARLINK-37423)
卫星状态:
在轨 (已飞行131 天)
发射日期:
2026-04-26 UTC
国别 :
美国 (US)
星等 :
--
Orbit Information
数据来源 国际轨道数据 AOE轨道数据
星历时间 2026-09-04T19:31:13+0800
9小时前
查看轨道信息
2026-09-01T02:00:00+0800
4天前
查看轨道信息
半长轴 6843.627km 6843.765km
偏心率 0.0000662 0.0001236
轨道倾角 97.287° 97.285°
近地点辐角 99.768° 62.955°
升交点赤经 260.852° 257.178°
平近点角 260.364° 239.458°
近地点 465.036km 464.782km
远地点 465.944km 466.474km
周期 93.905分钟 93.908分钟
每日圈数 15.33463 15.334168
Detailed Information
固有亮度:
5
最大亮度:
2.5
卫星平台:
Starlink V1.0
覆盖范围:
全球
运营商:
太空探索技术公司
运营商所在国:
美国
制造商(研发单位):
太空探索技术公司
制造商所在国:
美国
使用方式:
暂无
Satellite Introduction
Starlink 计划是 SpaceX 推出的全球卫星互联网项目,通过发射低轨道卫星,为全球尤其是偏远地区提供高速、低延迟的互联网服务。自 2019 年起,Starlink 已部署数千颗卫星,旨在缩小全球数字鸿沟,推动互联网普及。该项目还为军事、航空等行业提供通信支持,带来广泛经济效益。
2D Orbit Map
3D Orbit Map
Orbit Altitude Analysis Chart
Orbit Inclination Analysis Chart
Orbit Comprehensive Analysis Chart
View Comprehensive Chart
Conjunction Data List
Event ID Objects TCA Miss Dist (km) Collision Risk Probability Collision Risk Index (CRI) Action
CDM_260906-053404-856306-885222
2026-09-06T
05:34:13+0000
2.425 km
极远距离
1.649504E-6 低风险 0.39
CDM_260903-114706-449006-885222
2026-09-03T
11:47:48+0000
2.550 km
极远距离
1.539746E-6 低风险 0.39
CDM_260907-065006-534706-885221
2026-09-07T
06:50:55+0000
2.788 km
极远距离
1.470975E-6 低风险 0.38